Tracking 28052 objects as of 21-Sep-2023
HD Live streaming from Space Station
objects crossing your sky now

OBJECT AD

Track OBJECT AD now!
10-day predictions


NORAD ID: 47959
Int'l Code: 2021-022AD
Perigee: 514.0 km
Apogee: 538.9 km
Inclination: 97.5 °
Period: 95.0 minutes
Semi major axis: 6897 km
RCS: Unknown
Launch date: March 22, 2021
Source: (TBD)
Launch site: TYURATAM MISSILE AND SPACE COMPLEX (TTMTR)
Your satellite tracking list
Your tracking list is empty




NASA's NSSDC Master Catalog

Two Line Element Set (TLE):
1 47959U 21022AD  23264.36750641  .00014923  00000-0  78648-3 0  9995
2 47959  97.4833 160.3711 0018045   9.3559 350.8006 15.15542619136414
Source of the keplerian elements: AMSAT